Regional Weather Roundup
Issued by NWS

Home | Current Version | Previous Version | Text Only | Print | Product List | Glossary Off
Versions: 1 2 3 4 5 6 7 8 9 10 11 12 13 14 15 16 17 18 19 20 21 22 23 24 25 26 27 28 29 30 31 32 33 34 35 36 37 38 39 40 41 42 43 44 45 46 47 48 49 50

000
ASUS43 KLOT 070812
RWRIL

ILLINOIS REGIONAL WEATHER ROUNDUP
NATIONAL WEATHER SERVICE CHICAGO/ROMEOVILLE IL
200 AM CST WED DEC 07 2016

NOTE: "FAIR" INDICATES FEW OR NO CLOUDS BELOW 12,000 FEET WITH NO
SIGNIFICANT WEATHER AND/OR OBSTRUCTIONS TO VISIBILITY.

* THESE STATIONS ARE NOT UNDER NWS QUALITY CONTROL. THEY ALSO MAY NOT
  REPORT WEATHER SUCH AS PRECIPITATION OR FOG.

ILZ001-002-007-009-015-016-024-070900-
NORTHWEST ILLINOIS

CITY           SKY/WX    TMP DP  RH WIND       PRES   REMARKS
MOLINE         CLOUDY    28  16  60 W20G26    30.07R WCI  15
STERLING*      PTCLDY    26  20  77 W15       30.04R WCI  14
SAVANNA*       CLOUDY    25  17  70 W12G21    30.04S WCI  14
$$

ILZ003-004-008-010-011-017-018-070900-
NORTH CENTRAL ILLINOIS

CITY           SKY/WX    TMP DP  RH WIND       PRES   REMARKS
ROCKFORD       PTCLDY    25  17  72 W8G18     30.02R WCI  16
FREEPORT*      PTCLDY    23  16  73 W17G26    30.01S WCI  10
ROCHELLE*      PTCLDY    25  19  78 W15       30.03R WCI  12
DE KALB*       PTCLDY    24  19  79 W15       30.01R WCI  12
$$

ILZ005-006-012>014-019>023-070900-
NORTHEAST ILLINOIS

CITY           SKY/WX    TMP DP  RH WIND       PRES   REMARKS
CHICAGO-OHARE  PTCLDY    26  18  71 W15       30.00R WCI  14
CHICAGO-MIDWAY MOCLDY    28  18  66 W14       30.02R WCI  17
AURORA         PTCLDY    25  18  74 W12       30.02R WCI  14
LANSING*       PTCLDY    28  21  75 W15       30.03R WCI  16
JOLIET*        PTCLDY    29  20  68 W8        30.05R WCI  21
WAUKEGAN       CLEAR     25  17  72 SW12G21   29.96R WCI  14
DUPAGE AIRPORT PTCLDY    25  17  72 W14       30.01R WCI  13
KANKAKEE*      PTCLDY    28  21  74 W13G18    30.06R WCI  18
WHEELING       CLEAR     26  16  65 W12G22    30.01R WCI  16
MORRIS*        CLOUDY    28  20  71 W14       30.04R WCI  17
ROMEOVILLE*    PTCLDY    27  22  84 W13G21    30.03R WCI  16
NORTHERLY ISL    N/A     28  19  69 W9          N/A  WCI  19
$$

LMZ740>746-070900-
SOUTHERN LAKE MICHIGAN

STATION/POSITION SKY/WX   TEMP    WIND        PRES    VSBY  WAVE
                          AIR SEA DIR/SP/G                  HT/PER
                          (F)     (DEG/KT/KT) (MB)    (MI)  (FT/S)
HARRISON CRIB              29     270/ 24/ 30   N/A
BURNHAM HARBOR             28     230/ 14/ 16   N/A
CALUMET HARBOR             27     230/  9/ 14 1015.8R
BURNS HARBOR               31     270/ 24/ 30 1016.9R
MICHIGAN CITY              30     240/ 29/ 33   N/A
$$

ILZ025>027-034>036-040-047-049-050-058-095>099-070900-
WEST-CENTRAL ILLINOIS

CITY           SKY/WX    TMP DP  RH WIND       PRES   REMARKS
QUINCY         PTCLDY    29  17  61 NW7       30.11S WCI  22
GALESBURG*     PTCLDY    27  19  71 W14       30.09S WCI  16
MACOMB*        PTCLDY    29  19  64 W13       30.13R WCI  19
JACKSONVILLE*  PTCLDY    28  21  74 W3        30.12F
PITTSFIELD*    CLOUDY    30  19  65 CALM      30.13S
$$

ILZ028>032-037-038-041>044-048-051>054-059>061-070900-
CENTRAL ILLINOIS

CITY           SKY/WX    TMP DP  RH WIND       PRES   REMARKS
PONTIAC        PTCLDY    30  23  74 W13       30.08R WCI  20
BLOOMINGTON    CLEAR     27  19  72 W10       30.10R WCI  17
DECATUR        PTCLDY    30  20  66 NW10      30.11S WCI  21
PEORIA         PTCLDY    29  18  63 W10       30.11R WCI  20
LACON*         PTCLDY    28  18  65 W9        30.08R WCI  20
LINCOLN*       PTCLDY    31  22  67 W3        30.12S
SPRINGFIELD    CLOUDY    32  21  64 W7        30.12F WCI  26
TAYLORVILLE    CLOUDY    31  22  68 NW10      30.11R WCI  22
$$

ILZ033-039-045-046-055>057-062-063-070900-
EAST-CENTRAL ILLINOIS

CITY           SKY/WX    TMP DP  RH WIND       PRES   REMARKS
CHAMPAIGN      PTCLDY    30  22  72 W12       30.11R WCI  20
RANTOUL*       PTCLDY    31  25  78 W7        30.10R WCI  25
MATTOON        PTCLDY    29  22  75 NW14      30.08F WCI  18
PARIS*         PTCLDY    29  25  86 NW9       30.11R WCI  20
$$

ILZ079-100>102-070900-
SOUTHWEST ILLINOIS

CITY           SKY/WX    TMP DP  RH WIND       PRES   REMARKS
ALTON          PTCLDY    32  22  68 NW6       30.14R WCI  26
BELLEVILLE     CLOUDY    33  20  58 NW5       30.13R WCI  28
CAHOKIA*       CLOUDY    35  17  47 NW12      30.14R WCI  27
SPARTA*        CLOUDY    32  23  69 NW3       30.16R
$$

ILZ064>066-069>071-074>076-080>082-084>086-088>090-092>094-070900-
SOUTH-CENTRAL ILLINOIS

CITY           SKY/WX    TMP DP  RH WIND       PRES   REMARKS
CARBONDALE     PTCLDY    33  28  81 NW6       30.15R WCI  28
CAIRO*         MOCLDY    37  31  80 N7        30.15R WCI  31
EFFINGHAM*     MOCLDY    32  25  74 NW9       30.13R WCI  24
MARION         MOCLDY    36  27  69 N6        30.15R WCI  31
CENTRALIA*     PTCLDY    33  26  76 CALM      30.12R
SALEM*         CLOUDY    33  24  69 NW6       30.13S WCI  27
METROPOLIS*    CLOUDY    37  33  85 CALM      30.15R
$$

ILZ067-068-072-073-078-083-087-091-070900-
SOUTHEAST ILLINOIS

CITY           SKY/WX    TMP DP  RH WIND       PRES   REMARKS
LAWRENCEVILLE  MOCLDY    30  26  85 NW8       30.12R WCI  22
FLORA*         MOCLDY    33  26  75 NW6       30.14R WCI  28
FAIRFIELD*     CLOUDY    33  27  77 CALM      30.13R
HARRISBURG*    CLOUDY    35  29  81 NW7       30.15R WCI  29
ROBINSON*      CLOUDY    31  24  75 NW7       30.13R WCI  24
CARMI*         CLOUDY    33  32  96 W6        30.13R WCI  28
$$

ABBREVIATIONS USED IN REMARKS
   TC - TEMPERATURE IN CELSIUS
  WCI - WIND CHILL INDEX
   HX - HEAT INDEX
  VSB - VISIBILITY
$$





USA.gov is the U.S. government's official web portal to all federal, state and local government web resources and services.